Погода в Газиантепе

Турция     37°03′45″N   37°22′46″E
темп.,
°C
ветер,
м/с
пор.,
м/с
влажн.,
%
обл.,
%
осадки,
мм/ч
давл.,
гПа
погр.,
м
21 апреля, ср
ср2100:00+18з3357100 0.0 101121
03:00+16зсз3352100 0.0 101221
06:00+14зсз224362 0.0 101312
09:00+19з33255 0.0 1014408
12:00+23зюз56185 0.0 10131024
15:00+23зюз782014 0.0 10131258
18:00+20зюз583012 0.0 1013233
21:00+14сз34475 0.0 101538
22 апреля, чт
чт2200:00+12сз33385 0.0 101619
03:00+10зсз33370 0.0 101614
06:00+10зсз22290 0.0 101612
09:00+16зсз231970 0.0 1017372
12:00+20зюз45190 0.0 10161164
15:00+21зюз78230 0.0 10151436
18:00+18зюз68320 0.0 1014316
21:00+13зсз34540 0.0 101645
23 апреля, пт
пт2300:00+13сз58670 0.0 1017117
03:00+12ссз59670 0.0 1017110
06:00+12ссз56595 0.0 101864
09:00+18с33305 0.0 1018520
12:00+22з23207 0.0 10171549
15:00+24зюз44225 0.0 10151703
18:00+22зюз453367 0.0 1015127
21:00+17з22447 0.0 101612
24 апреля, сб
сб2400:00+15зсз33450 0.0 101611
03:00+14сз32341 0.0 101511
06:00+13сз33313 0.0 101512
09:00+20ссв22280 0.0 1015349
12:00+24вюв212174 0.0 10151384
15:00+26ююв22205 0.0 10131730
18:00+24ю34305 0.0 101264
21:00+18зюз113686 0.0 101411
25 апреля, вс
вс2500:00+18сз1135100 0.0 101311
03:00+17св0035100 0.0 101311
06:00+16всв11375 0.0 101311
09:00+23в342652 0.0 1012391
12:00+26юв5522100 0.0 10111256
15:00+29ююв3420100 0.0 10081552
18:00+27всв1231100 0.0 100612
21:00+21юз2247100 1.4 100811